Probability
6 16 32 43 45 44 41 40 40 37 30 21 14 9 5 3 1 0 0 0 0 0 0 0 0 0 0 0 0 0 0 0 0 0 0 0 0 0 0 0 0 0 0
6 16 31 42 48 49 47 46 46 44 37 29 20 11 6 3 2 1 0 0 0 0 0 0 0 0 0 0 0 0 0 0 0 0 0 0 0 0 0 0 0 0 0
7 16 30 41 49 54 55 53 50 48 44 38 29 19 11 6 3 1 0 0 0 0 0 0 0 0 0 0 0 0 0 0 0 0 0 0 0 0 0 0 0 0 0
10 17 28 40 48 53 56 55 50 47 45 42 35 26 18 10 4 2 1 2 1 1 1 0 0 0 0 0 0 0 0 0 0 0 0 0 0 0 0 0 0 0 0
12 17 26 37 46 49 52 52 48 44 42 39 36 30 22 13 8 6 5 5 4 3 3 1 0 0 0 0 0 0 0 0 0 0 0 0 0 0 0 0 0 0 0
11 16 25 35 43 47 50 49 45 40 36 36 35 32 24 17 13 13 12 10 8 7 5 2 0 0 0 0 0 0 0 0 0 0 0 0 0 0 0 0 0 0 0
11 14 24 33 39 44 46 45 42 36 33 34 34 32 28 22 19 21 20 17 12 9 6 2 0 0 0 0 0 0 0 0 0 0 0 0 0 0 0 0 0 0 0
13 15 20 27 33 39 41 40 37 35 33 34 34 32 30 27 25 26 25 21 16 10 6 2 0 0 0 0 0 0 0 0 0 0 0 0 0 0 0 0 0 0 0
14 15 18 20 24 29 33 33 30 29 31 33 31 29 28 28 28 27 25 21 15 10 7 3 1 0 0 0 0 0 0 0 0 0 0 0 0 0 0 0 0 0 0
12 14 17 18 18 20 21 22 21 20 23 24 22 20 22 23 25 22 17 14 12 9 6 4 2 1 0 0 0 0 0 0 0 0 0 0 0 0 0 0 0 0 0
9 11 15 18 18 16 14 15 15 14 14 15 14 14 15 16 17 14 8 7 7 6 4 3 2 1 0 0 0 0 0 0 0 0 0 0 0 0 0 0 0 0 0
5 6 10 15 18 18 17 18 20 19 16 14 12 13 15 15 14 11 5 4 4 4 2 1 1 1 0 0 0 0 0 0 0 0 0 0 0 0 0 0 0 0 0
1 2 5 10 14 19 21 25 29 29 25 21 17 18 20 20 18 15 10 6 4 3 2 1 0 0 0 0 0 0 0 0 0 0 0 0 0 0 0 0 0 0 1
1 0 2 5 10 15 19 23 29 33 30 26 24 25 27 26 22 18 15 11 7 5 3 1 0 0 0 0 0 0 0 0 0 0 0 0 0 0 0 0 0 1 2
2 1 1 3 6 10 15 18 22 26 27 25 25 28 29 27 21 16 14 12 9 6 4 2 0 0 0 0 0 0 0 0 0 0 0 0 0 0 0 0 0 1 2
2 2 2 3 5 9 14 14 15 19 21 21 23 26 26 24 19 14 12 11 10 8 7 4 1 0 0 0 0 0 0 0 0 0 0 0 0 0 0 0 0 0 1
1 1 1 2 4 7 10 10 12 15 17 18 21 22 20 18 16 12 10 10 10 9 9 7 2 0 0 0 0 0 0 0 0 0 0 0 0 0 0 0 0 0 0
0 0 1 2 2 3 4 6 9 13 15 17 20 20 15 11 10 11 11 10 10 11 11 8 3 0 0 0 0 0 0 0 0 0 0 0 0 0 0 0 0 0 0
0 1 2 2 1 0 2 4 7 11 14 17 19 17 11 7 6 8 10 10 10 11 10 6 2 1 0 0 0 0 0 0 0 0 0 0 0 0 0 0 0 0 0
0 2 3 2 1 1 1 3 6 10 13 16 17 13 6 4 4 5 7 9 10 11 9 4 1 1 0 0 0 0 0 0 0 0 0 0 0 0 0 0 0 0 0
1 3 4 2 1 1 1 2 5 9 11 12 12 8 4 3 3 3 4 6 8 9 8 4 1 0 0 0 0 0 0 0 0 0 0 0 0 0 0 0 0 0 0
2 3 3 3 1 1 1 2 4 7 8 8 8 6 4 3 4 2 2 3 5 6 6 4 1 0 0 0 0 0 0 0 0 0 0 0 0 0 0 0 0 0 0
1 1 2 2 1 0 1 2 3 5 7 7 6 6 4 4 4 3 1 1 3 4 5 4 1 0 0 0 0 0 0 0 0 0 0 0 0 0 0 0 0 0 0
0 1 2 1 1 0 0 1 2 4 6 7 6 6 6 5 4 2 0 1 2 4 5 4 1 0 0 0 0 0 0 1 0 0 0 0 0 0 0 0 0 0 0
1 1 2 1 0 0 0 0 1 3 5 6 6 7 7 5 3 1 0 0 1 3 4 3 1 0 0 0 0 0 0 0 0 0 0 0 0 0 0 0 0 0 0
0 1 1 0 0 0 0 0 0 2 5 6 6 7 7 5 3 1 0 0 1 2 3 2 1 0 0 0 0 0 0 0 0 0 0 0 0 0 0 0 0 0 0
Wind_Speed
1 2 5 9 12 13 13 14 15 16 17 17 17 17 16 16 15 15 14 14 14 14 14 14 14 14 14 14 14 15 15 15 15 15 14 14 14 14 13 11 11 12 15
2 3 6 8 11 13 13 13 15 15 15 16 17 17 17 16 16 15 15 15 14 14 15 15 14 14 14 15 15 15 15 15 15 14 12 11 12 13 13 12 12 11 13
2 2 7 7 9 12 12 12 14 15 15 16 17 17 17 16 16 16 15 15 14 14 15 14 14 15 15 15 15 14 15 15 14 10 8 10 12 13 13 13 13 13 13
1 2 5 6 8 11 12 13 13 15 16 16 16 17 17 16 16 16 15 15 14 14 14 14 14 15 14 14 14 14 14 13 11 5 6 9 10 12 12 13 13 13 13
1 1 3 5 7 9 11 13 13 15 16 16 16 16 17 16 16 16 15 14 13 13 13 14 14 14 14 14 13 13 13 12 6 5 8 8 9 11 12 12 12 12 12
1 2 3 4 6 8 9 12 13 14 16 16 16 16 16 16 16 16 14 13 13 13 14 14 14 14 13 13 13 13 12 10 7 8 7 8 9 11 11 11 11 11 11
2 2 3 4 6 8 8 10 13 13 15 16 16 16 16 16 16 15 13 13 14 14 14 15 14 14 13 12 13 12 11 5 5 7 7 7 9 11 11 10 10 10 10
4 3 3 5 6 7 8 9 12 13 14 15 15 16 16 15 15 14 14 14 15 15 15 14 14 13 13 12 12 12 9 5 6 7 6 7 9 10 10 10 9 9 9
4 4 3 5 6 8 8 8 11 12 12 14 14 14 14 13 13 14 14 15 15 15 14 13 13 13 13 12 12 11 7 3 5 5 6 6 8 9 9 9 9 8 8
4 4 4 4 5 7 8 9 10 11 11 12 13 12 11 11 12 13 14 14 14 14 13 13 13 13 12 12 11 10 7 6 6 6 4 6 8 8 9 8 8 7 7
5 4 4 4 5 6 7 9 11 10 10 11 12 11 11 12 13 12 14 13 13 13 13 13 12 12 10 10 9 9 8 5 6 4 4 7 8 8 8 7 7 6 6
7 5 4 4 4 5 5 6 8 9 10 11 11 13 11 10 10 10 12 12 12 12 12 12 11 12 9 8 8 8 5 6 5 4 4 7 8 8 8 7 6 6 5
8 7 5 5 4 5 4 5 5 6 7 9 12 12 10 9 8 8 7 9 10 12 11 11 11 9 8 7 7 7 6 5 4 4 5 7 7 8 8 7 6 6 5
8 8 6 6 5 5 4 5 6 6 6 6 9 12 9 7 7 8 7 8 9 8 9 9 8 10 9 9 9 8 7 5 4 3 5 6 7 8 8 8 7 6 6
9 8 8 6 6 5 4 4 5 6 6 7 7 9 10 8 9 8 7 8 9 8 9 9 9 9 9 8 8 8 7 7 6 5 4 6 6 7 8 8 8 7 7
9 8 7 7 6 5 4 5 5 6 6 6 6 8 11 8 8 8 8 8 8 8 8 8 9 8 8 7 8 8 7 7 6 6 5 6 7 7 8 9 8 8 7
8 7 7 7 6 6 6 6 5 5 6 6 6 8 9 9 9 9 8 8 8 8 9 8 9 8 7 7 8 8 7 7 7 7 6 6 6 7 7 9 8 7 7
8 7 5 5 6 5 5 5 5 5 6 6 6 7 9 10 10 9 8 8 9 8 8 8 8 8 7 7 7 6 6 6 8 8 7 6 6 6 7 7 7 7 7
7 7 5 5 5 5 5 5 5 5 6 5 6 6 8 10 10 9 8 8 9 8 8 8 8 8 8 8 7 6 6 6 7 7 8 8 7 6 6 6 6 6 6
6 5 5 5 4 4 4 4 4 5 5 5 6 7 9 9 10 9 7 9 9 8 8 8 9 8 7 7 6 6 6 6 6 7 8 7 7 7 7 7 6 6 7
4 4 4 5 4 3 3 4 5 5 5 5 5 6 8 10 10 9 7 8 9 8 9 10 9 10 8 7 5 5 5 6 7 7 7 7 8 8 8 8 6 6 5
5 4 4 4 4 4 4 4 4 5 5 5 4 5 8 9 9 9 10 8 9 8 10 10 9 7 7 7 6 5 5 6 7 7 6 7 8 7 8 8 8 7 6
5 5 5 5 5 5 5 4 4 4 4 4 5 5 7 8 9 9 10 9 9 9 9 10 10 11 8 8 8 6 6 6 5 6 9 8 8 7 7 7 8 8 7
5 4 5 5 4 4 4 5 6 6 6 6 5 5 6 8 9 9 10 10 9 8 9 10 11 9 10 9 8 7 6 3 5 5 6 7 8 8 8 7 8 8 8
5 5 4 4 4 4 4 5 6 6 5 4 5 6 7 7 8 9 10 10 10 9 10 10 10 11 9 9 8 7 7 5 6 5 5 6 7 7 8 8 7 7 7
6 5 5 5 4 4 3 3 5 6 6 6 6 6 6 5 6 8 9 9 10 9 10 11 11 12 10 11 9 9 8 7 7 6 6 6 7 6 7 7 7 7 6
Wind_Direction
327 208 167 177 167 162 161 161 160 160 159 159 159 157 156 154 152 150 147 145 143 140 135 131 128 126 124 119 113 107 104 100 97 94 91 90 91 91 89 89 90 85 81
295 201 157 175 170 165 162 163 162 161 160 160 161 160 159 157 155 153 152 150 148 145 138 134 131 127 122 118 114 111 107 104 103 101 101 98 92 93 89 79 72 84 84
327 180 165 171 173 170 166 162 163 162 163 163 164 163 163 161 158 157 157 156 153 148 143 139 134 127 122 119 117 115 112 111 110 115 132 110 101 96 95 91 89 89 86
323 178 172 163 173 175 170 166 165 165 165 166 167 167 166 164 162 162 162 159 154 148 144 139 133 129 125 122 121 119 117 116 118 155 122 106 105 101 100 96 93 91 88
321 191 165 164 174 176 176 171 169 170 170 169 170 170 169 168 167 166 165 160 153 146 141 137 135 132 130 128 126 124 122 121 132 141 105 105 103 104 102 98 96 93 91
296 219 170 178 182 175 176 177 176 176 176 173 172 172 171 171 171 169 165 157 151 146 143 142 140 138 136 134 132 129 127 135 162 117 116 112 108 109 107 105 101 97 94
290 248 192 190 189 184 177 180 180 179 180 178 176 176 174 175 173 169 163 156 153 150 149 148 146 145 143 141 137 134 135 159 139 123 118 112 110 118 115 112 108 104 99
297 267 226 195 195 187 186 186 186 184 182 181 180 179 177 176 173 168 164 160 158 157 156 154 152 150 148 145 142 139 143 175 140 129 125 118 116 127 121 116 113 109 104
298 274 250 216 201 193 190 192 194 188 185 185 182 181 179 175 171 167 165 164 163 162 160 158 157 155 154 149 146 145 148 182 153 136 133 124 129 134 129 125 120 115 110
294 287 265 240 218 206 199 193 193 190 187 188 185 180 175 171 170 167 168 167 166 164 163 162 162 160 156 153 150 148 150 190 160 147 146 128 140 142 138 134 129 124 119
293 292 279 258 232 216 210 197 194 192 191 189 186 176 175 182 180 176 177 167 167 165 165 166 164 160 153 152 152 152 173 189 163 157 148 130 156 152 148 145 141 135 131
293 292 285 270 252 228 216 204 201 198 195 198 195 187 188 188 186 184 168 166 167 166 167 168 163 160 171 168 160 174 193 185 169 166 141 148 169 164 159 155 152 147 146
286 285 283 273 263 242 223 213 205 199 196 202 200 192 190 188 182 181 172 171 174 173 176 171 172 182 190 180 177 191 193 185 182 169 153 168 181 176 171 167 167 168 168
283 280 277 274 258 241 228 222 209 199 196 197 199 194 190 186 185 183 182 183 183 185 184 184 192 189 194 189 190 192 190 193 191 180 156 175 190 187 182 181 182 185 186
282 280 277 271 258 241 227 225 217 205 199 196 199 197 193 189 188 187 188 188 190 188 188 191 195 193 195 194 196 196 195 198 195 192 167 177 194 196 194 194 197 202 203
279 276 274 269 252 236 227 220 220 211 200 196 196 200 197 194 191 189 191 191 193 192 193 195 195 193 195 195 197 199 201 200 203 201 191 177 189 201 206 207 210 212 216
280 275 269 267 250 230 225 222 217 214 204 195 196 201 202 197 195 194 195 193 194 194 193 195 193 193 193 195 200 204 205 207 205 206 203 199 193 197 210 215 215 219 226
284 279 271 265 251 233 225 223 215 211 209 203 197 200 205 201 198 197 197 197 195 193 193 193 192 193 194 197 200 201 206 208 214 212 208 207 205 201 201 208 217 224 230
285 279 276 265 248 234 225 223 217 211 213 211 204 200 203 203 200 199 199 199 194 193 194 194 196 195 196 198 201 204 208 209 214 215 217 214 213 212 211 189 203 220 226
293 283 281 267 255 243 228 218 211 211 212 215 211 204 203 204 201 202 203 200 195 193 194 196 197 198 199 197 197 208 215 214 216 216 219 218 216 215 217 210 207 206 212
313 299 282 276 261 243 224 214 206 206 208 213 214 211 209 204 201 203 205 202 199 198 199 199 197 198 197 190 191 202 218 223 224 218 220 220 216 215 219 218 219 216 206
325 315 290 272 262 244 228 222 216 212 209 212 211 211 210 207 203 203 205 203 202 200 202 200 196 198 197 192 193 190 204 214 219 221 221 222 223 217 221 221 222 222 224
330 321 306 290 270 254 237 221 214 209 208 212 211 211 209 207 205 205 209 209 206 203 202 202 200 201 198 198 201 200 201 214 204 208 218 219 220 219 221 221 225 224 224
335 329 318 307 286 267 243 219 214 211 211 214 214 212 210 208 208 208 212 211 210 209 208 206 203 206 204 202 205 218 229 222 205 203 207 218 222 224 223 221 222 220 220
340 339 334 323 319 297 263 227 219 221 221 216 219 215 210 208 213 213 212 211 211 212 212 212 209 211 210 209 206 205 212 221 223 219 217 209 218 224 224 223 220 219 217
357 353 347 346 340 322 295 252 225 218 217 216 221 221 211 210 214 216 217 215 215 215 215 216 215 215 216 216 214 211 210 208 210 216 226 218 220 219 221 222 222 218 215